Location: Seasalter
(51.3333°N, 1.0167°E)
Time: 05:08:39
(UTC+00:00)

CZ-2C R/B - Pass Details

Date: 26 September 2023
Orbit: 666 x 781 km, 98.3° (Epoch: 29 November)

Event Time Altitude Azimuth Distance (km) Brightness Sun altitude
Rises 02:43:59 0° 21° (NNE) 3,184 6.6 -27.6°
Reaches altitude 10° 02:46:34 10° 33° (NNE) 2,236 5.8 -27.3°
Maximum altitude 02:50:53 30° 94° (E) 1,266 4.0 -26.8°
Enters shadow 02:53:38 18° 144° (SE) 1,711 4.3 -26.4°
